Regional Weather Roundup
Issued by NWS

Home | Current Version | Previous Version | Text Only | Print | Product List | Glossary On
Versions: 1 2 3 4 5 6 7 8 9 10 11 12 13 14 15 16 17 18 19 20 21 22 23 24 25 26 27 28 29 30 31 32 33 34 35 36 37 38 39 40 41 42 43 44 45 46 47 48 49 50
652
ASUS43 KMPX 092010
RWRMN
WEATHER ROUNDUP FOR MINNESOTA
NATIONAL WEATHER SERVICE TWIN CITIES/CHANHASSEN MN
200 PM CST FRI DEC 09 2016


NOTE: "FAIR" INDICATES FEW OR NO CLOUDS BELOW 12,000 FEET WITH NO
SIGNIFICANT WEATHER AND/OR OBSTRUCTIONS TO VISIBILITY. N/A MEANS
CURRENT SKY AND/OR WEATHER CONDITIONS ARE NOT AVAILABLE.

MNZ060>063-068>070-092100-
   Twin Cities Metro

CITY           SKY/WX    TMP DP  RH WIND       PRES   REMARKS
TWIN CITIES    PTSUNNY   19   7  59 W9        30.50F WCI   8
ST PAUL        CLOUDY    20  32 100 W6        30.51F WCI  12
CRYSTAL        CLOUDY    17   6  62 SW10      30.49F WCI   5
BLAINE         PTSUNNY   19  10  68 W7        30.48F WCI  10
LAKEVILLE      MOSUNNY   16   9  73 W6        30.49F WCI   7
EDEN PRAIRIE   CLOUDY    18   8  65 W9        30.49F WCI   7
SOUTH ST PAUL  MOSUNNY   19   8  63 W8        30.50F WCI   9
LAKE ELMO      FLURRIES  19  12  73 W6        30.50F WCI  11
$$
MNZ001>005-007-008-013>017-022>024-027-028-092100-
   Northwest Minnesota

CITY           SKY/WX    TMP DP  RH WIND       PRES   REMARKS
BEMIDJI        LGT SNOW   7   1  78 NW8       30.45F WCI  -6
HALLOCK        CLOUDY     1  -4  78 NW7       30.56S WCI -11
ROSEAU         CLOUDY     3  -4  72 W8        30.51S WCI -10
WARROAD        MOSUNNY    3  -6  66 SW10      30.49F WCI -12
THIEF RVR FALL CLOUDY     5  -1  76 W10       30.52F WCI -10
CROOKSTON      CLOUDY     3   0  85 NW13      30.56S WCI -14
FOSSTON        CLOUDY     7   0  72 W10       30.49F WCI  -8
DETROIT LAKES  PTSUNNY    5   1  85 NW9       30.49F WCI  -9
MOORHEAD       MOSUNNY    3  -2  78 NW8       30.56S WCI -10
PARK RAPIDS    FLURRIES   8  -1  66 W7        30.45S WCI  -3
$$
MNZ006-009>011-018-025>026-092100-
   North Central Minnesota

CITY           SKY/WX    TMP DP  RH WIND       PRES   REMARKS
BAUDETTE       SUNNY      4  -6  63 W10       30.45F WCI -11
FLAG ISLAND    CLOUDY     5  -2  72 W13       30.46S WCI -12
INTL FALLS     CLOUDY     6  -3  66 W7        30.45S HAZE    WCI  -6
WASKISH        CLOUDY     9   0  66 NW9       30.46F WCI  -5
BIG FORK       CLOUDY     9   0  66 NW3       30.44F
LONGVILLE      CLOUDY     9   0  66 W8        30.45F WCI  -4
GRAND RAPIDS   FLURRIES   9  -1  64 NW10      30.46F WCI  -5
CRANE LAKE     CLOUDY     5  -2  72 W3        30.46S
ORR            CLOUDY     5  -6  61 W9        30.41S WCI  -9
COOK           LGT SNOW   5  -2  72 W14       30.44S WCI -12
$$
MNZ012-019>021-037-092100-
   Northeast Minnesota

CITY           SKY/WX    TMP DP  RH WIND       PRES   REMARKS
DULUTH         CLOUDY     9   0  67 NW14      30.41F WCI  -7
ELY            CLOUDY     7   0  72 W10       30.40S WCI  -8
HIBBING        LGT SNOW   6  -3  66 NW13      30.43F WCI -10
EVELETH        PTSUNNY    7  -4  62 W12G18    30.44S WCI  -9
DULUTH HARBOR  CLOUDY    16   3  57 W15       30.49F WCI   1
TWO HARBORS    SUNNY     12   1  62 W8        30.42S WCI   1
SILVER BAY     PTSUNNY   12   1  62 W9        30.40S WCI   0
GRAND MARAIS     N/A     19  11  70 W9        30.42S WCI   8
G MARAIS ARPRT CLOUDY    10   1  67 W5        30.31S HAZE    WCI   2
$$
MNZ029>031-032-039>041-046>048-054>057-064-092100-
   West Central Minnesota

CITY           SKY/WX    TMP DP  RH WIND       PRES   REMARKS
FERGUS FALLS   CLOUDY     7   1  78 NW10      30.57F HAZE    WCI  -8
WHEATON        CLOUDY     9   1  72 NW7       30.57F HAZE    WCI  -3
MORRIS         MOSUNNY    9   0  66 W5        30.51F HAZE    WCI   0
ALEXANDRIA     CLOUDY     6   0  76 NW7       30.49S WCI  -6
ELBOW LAKE     CLOUDY     5   0  77 N7        30.52F HAZE    WCI  -7
WADENA         LGT SNOW   7   1  78 W8        30.46F WCI  -6
GLENWOOD       PTSUNNY    7   1  78 W7        30.50S WCI  -5
APPLETON       PTSUNNY   10   1  67 NW7       30.54F WCI   0
BENSON         MOSUNNY   10   0  61 NW8       30.52F WCI  -1
ORTONVILLE     PTSUNNY    7   0  72 NW8       30.53F WCI  -6
MADISON        PTSUNNY   12   3  67 W10       30.54F WCI  -1
WILLMAR        PTSUNNY   12   7  79 CALM      30.52F
$$
MNZ033>034-036-042>043-049>051-058-059-092100-
   Central Minnesota

CITY           SKY/WX    TMP DP  RH WIND       PRES   REMARKS
ST CLOUD       CLOUDY    13   5  70 W9        30.49F WCI   1
PAYNESVILLE    MOSUNNY   10   3  73 W9        30.51S WCI  -2
AITKIN         CLOUDY    12   1  62 W8        30.45S WCI   1
PINE RIVER     CLOUDY     9   1  72 W3        30.48F
BRAINERD       CLOUDY    10   0  63 W9        30.47F WCI  -3
STAPLES        CLOUDY     9   0  66 W7        30.46F WCI  -3
LONG PRAIRIE   CLOUDY    10   1  67 W7        30.48S WCI   0
LITTLE FALLS   CLOUDY    12   3  67 NW7       30.48F WCI   2
LITCHFIELD     PTSUNNY   12   5  73 W7        30.51S WCI   2
BUFFALO        PTSUNNY   15   6  69 W6        30.51F WCI   6
MAPLE LAKE     CLOUDY    16   9  74 W7        30.50F WCI   6
HUTCHINSON     PTSUNNY   16   8  72 W10       30.52S WCI   3
$$
MNZ037-044-045-052-053-092100-
   East Central Minnesota

CITY           SKY/WX    TMP DP  RH WIND       PRES   REMARKS
PRINCETON      FLURRIES  16   7  67 W7        30.48F WCI   6
MORA           PTSUNNY   14   5  67 W7        30.49F WCI   4
CAMBRIDGE      FLURRIES  18   7  62 W9        30.46F WCI   6
RUSH CITY      CLOUDY    16   9  73 W6        30.48F WCI   7
MOOSE LAKE     CLOUDY    14   3  62 W7        30.45S WCI   4
HINCKLEY       CLOUDY    18   9  68 W6        30.47F WCI   9
CLOQUET        CLOUDY    10   0  61 W10       30.43S WCI  -3
MCGREGOR       CLOUDY    12   5  73 NW6       30.46S WCI   3
$$
MNZ071>073-080-081-089-090-097-098-092100-
   Southwest Minnesota

CITY           SKY/WX    TMP DP  RH WIND       PRES   REMARKS
MONTEVIDEO     PTSUNNY   10   1  67 NW5       30.55F WCI   2
GRANITE FALLS  CLOUDY    13   4  70 W8        30.55F WCI   1
CANBY          PTSUNNY   11   1  62 NW10      30.54F WCI  -2
MARSHALL       SUNNY     11   1  64 NW6       30.52F WCI   1
REDWOOD FALLS  CLOUDY    11   4  73 NW6       30.53S WCI   1
OLIVIA         LGT SNOW  12   5  73 W7        30.52S WCI   2
PIPESTONE      SUNNY     10   3  72 NW6       30.46F WCI   1
WINDOM         MOSUNNY   14   7  73 CALM      30.49S
WORTHINGTON    CLOUDY    14   6  70 W8        30.48F WCI   3
JACKSON        CLOUDY    16   7  67 NW8       30.48F WCI   5
TRACY          CLOUDY    12   6  74 NW6       30.50F WCI   3
SLAYTON        CLOUDY    12   5  73 W3        30.48F
$$
MNZ065>067-074>077-082>085-091>093-092100-
   South Central Minnesota

CITY           SKY/WX    TMP DP  RH WIND       PRES   REMARKS
MANKATO        FLURRIES  15   8  73 W12       30.51F WCI   2
NEW ULM        PTSUNNY   12   7  79 W9        30.52F WCI   0
ST JAMES       PTSUNNY   14   7  73 W6        30.53S WCI   5
FAIRMONT       CLOUDY    16   8  71 W8        30.51F WCI   5
GLENCOE        FLURRIES  16  10  77 W12       30.51S WCI   3
OWATONNA       SUNNY     18   9  68 W7        30.48F WCI   8
WASECA         FLURRIES  18  12  79 W7        30.50F WCI   8
ALBERT LEA     SUNNY     19  12  73 NW7       30.48F WCI  10
$$
MNZ078>079-086>088-094>096-092100-
   Southeast Minnesota

CITY           SKY/WX    TMP DP  RH WIND       PRES   REMARKS
ROCHESTER      MOSUNNY   16  10  77 W9        30.47F WCI   4
RED WING       PTSUNNY   21   9  58 W7        30.49F WCI  13
STANTON        SUNNY     18  10  70 W6        30.49F WCI  10
DODGE CENTER   SUNNY     16   9  73 W10       30.46F WCI   3
WINONA         MOSUNNY   21  12  68 W7        30.53S WCI  13
AUSTIN         FLURRIES  18  10  73 W5        30.47F WCI  11
PRESTON        SUNNY     16   9  73 W8        30.48F WCI   5
$$
ABBREVIATIONS USED IN REMARKS
   TC - TEMPERATURES IN CELSIUS
  WCI - WIND CHILL INDEX
   HX - HEAT INDEX
  VSB - VISIBILITY
$$




USA.gov is the U.S. government's official web portal to all federal, state and local government web resources and services.